Skip Page Navigation
NASA JPL Caltech
NASA Logo - Jet Propulsion Laboratory + View the NASA Portal
+ Center for Near-Earth Object Studies
JPL Home Earth Solar System Stars & Galaxies Technology
JPL Solar System Dynamics
BODIES ORBITS EPHEMERIDES TOOLS PHYSICAL DATA DISCOVERY FAQ SITE MAP
JPL Small-Body Database Browser
Search: [ help ]  
(2020 GY2)
Classification: Apollo [NEO]          SPK-ID: 54016527
Ephemeris | Orbit Diagram | Orbital Elements | Mission Design | Physical Parameters | Close-Approach Data ]

[ show orbit diagram ]
Orbital Elements at Epoch 2458959.5 (2020-Apr-20.0) TDB
Reference: JPL 12 (heliocentric ecliptic J2000)
 Element Value Uncertainty (1-sigma)   Units 
e .6531752535321115 0.00089581  
a 2.426389203298891 0.0059061 au
q .8415318202665598 0.0001252 au
i 5.081093837470369 0.0043987 deg
node 52.18172179921983 0.0050237 deg
peri 225.6738250420121 0.004392 deg
M 347.2723035440262 0.05065 deg
tp 2459008.307485347833
(2020-Jun-07.80748535)
0.016026 TDB
period 1380.508624321644
3.78
5.0405
0.0138
d
yr
n .2607734523765812 0.00095213 deg/d
Q 4.011246586331222 0.0097639 au
  Orbit Determination Parameters
   # obs. used (total)      98  
   data-arc span      16 days  
   first obs. used      2020-04-15  
   last obs. used      2020-05-01  
   planetary ephem.      DE431  
   SB-pert. ephem.      SB431-N16  
   condition code      8  
   norm. resid. RMS      .53079  
   source      ORB  
   producer      Otto Matic  
   solution date      2020-Aug-21 06:33:52  

Additional Information
 Earth MOID = .0132718 au 
 Jupiter MOID = 1.19215 au 
 T_jup = 3.175 
[ show covariance matrix ]

Ephemeris | Orbit Diagram | Orbital Elements | Mission Design | Physical Parameters | Close-Approach Data ]

Physical Parameter Table
Parameter Symbol Value Units Sigma Reference Notes
absolute magnitude H 23.643   .5064 12 autocmod 2.8

[ show close-approach data ]
Ephemeris | Orbit Diagram | Orbital Elements | Mission Design | Physical Parameters | Close-Approach Data ]
ABOUT SSD CREDITS/AWARDS PRIVACY/COPYRIGHT GLOSSARY LINKS
FirstGov 2020-Nov-26 10:57 UT
(server date/time)  
NASA Home Page
Site Manager:   Ryan S. Park
Webmaster  Alan B. Chamberlin